Regional Weather Roundup
Issued by NWS Green Bay, WI

Home | Current Version | Previous Version | Graphics & Text | Print | Product List | Glossary Off
Versions: 1 2 3 4 5 6 7 8 9 10 11 12 13 14 15 16 17 18 19 20 21 22 23 24 25 26 27 28 29 30 31 32 33 34 35 36 37 38 39 40 41 42 43 44 45 46 47 48 49 50

000
ASUS43 KGRB 250910
RWRGRB

NORTH-CENTRAL AND NORTHEAST WISCONSIN REGIONAL WEATHER ROUNDUP
NATIONAL WEATHER SERVICE GREEN BAY WI
400 AM CDT SAT OCT 25 2014

WIZ005-009-010>012-018-019-251000-
NORTH CENTRAL WISCONSIN

CITY           SKY/WX    TMP DP  RH WIND       PRES   REMARKS
IRONWOOD       CLEAR     50  39  66 W10       29.76F
MANITOWISH WTR CLEAR     48  46  90 W7        29.80S
ARBOR VITAE    CLEAR     52  46  82 W7        29.80S
EAGLE RIVER    CLEAR     51  46  83 W12       29.79S
LAND O LAKES   CLEAR     51  46  83 W8        29.78S
RHINELANDER    CLEAR     49  46  90 W8        29.81F
PHILLIPS       CLEAR     49  45  85 W5        29.83S
ANTIGO         PTCLDY    51  50  97 W10       29.81S FOG
TOMAHAWK       CLEAR     50  47  88 W7        29.83S
MERRILL        CLEAR     51  51  98 W8        29.83S FOG
$$

WIZ013-073-251000-
NORTHEAST WISCONSIN

CITY           SKY/WX    TMP DP  RH WIND       PRES   REMARKS
IRON MOUNTAIN  CLEAR     54  48  80 W12       29.72F
MARINETTE      CLEAR     54  48  82 W7        29.75S
OCONTO         PTCLDY    54  54 100 W12       29.77F
$$

WIZ017-030-035>037-045-251000-
CENTRAL WISCONSIN

CITY           SKY/WX    TMP DP  RH WIND       PRES   REMARKS
MEDFORD        CLEAR     50  48  94 W8        29.85S
WAUSAU         PTCLDY    53  51  93 W10       29.82S
MOSINEE        PTCLDY    52  52 100 W7        29.85F FOG
MARSHFIELD     CLEAR     52  50  93 W8        29.86S FOG
WISC RAPIDS    CLEAR     54  52  93 W7        29.87F FOG
STEVENS POINT  MOCLDY    52  51  97 W6        29.85S FOG
WAUPACA        PTCLDY    56  55  94 W7        29.84S FOG
SHAWANO        PTCLDY    57  53  89 W6        29.80F FOG
CLINTONVILLE   PTCLDY    55  52  88 W8        29.81S
$$

WIZ038-039-048-051-251000-
FOX VALLEY

CITY           SKY/WX    TMP DP  RH WIND       PRES   REMARKS
NWS GREEN BAY  PTCLDY    56  54  93 W14       29.80S FOG
APPLETON       CLOUDY    54  54 100 W10       29.83S FOG
OSHKOSH        CLOUDY    56  54  93 W10       29.84R FOG
FOND DU LAC    PTCLDY    55  52  89 W9        29.84F
$$

WIZ022-050-052-251000-
EAST CENTRAL WISCONSIN

CITY           SKY/WX    TMP DP  RH WIND       PRES   REMARKS
STURGEON BAY   CLEAR     54  50  87 SW12      29.78S
MANITOWOC      CLOUDY    57  54  89 W12G20    29.80F
SHEBOYGAN      CLOUDY    56  53  90 W15G22    29.82S
$$

LMZ563-521-522-541>543-251000-
LAKESHORE

STATION/POSITION TIME  TEMP    WIND        PRES    VSBY  WAVE
                       AIR SEA DIR/SP/G                  HT/PER
                 (UTC) (F)     (DEG/KT/KT) (MB)    (MI)  (FT/S)
SHEBOYGAN LKSHOR 0900   57 51  260/ 11/ 12 1009.9F
KEWAUNEE LKSHORE 0900   56     270/  8/ 12 1007.9R
ALGOMA MARINA    0900          280/  7/ 10   N/A
NORTHPORT PIER   0900   55     240/  4/ 12 1007.1S
N MID LAKE BUOY  0900   53 51  230/ 12/ 14 1006.9F         4/ 6
CHAMBERS ISLAND  0900   53     190/  6/ 10 1007.8F
MENOMINEE LKSHOR 0900   54     240/  9/ 12 1008.3S
$$



USA.gov is the U.S. government's official web portal to all federal, state and local government web resources and services.